Nassau, Bahamas

2:01 AM EDT on May 28, 2017 (GMT -0400)
Nassau International

Weather History for MYNN - October, 2011

Change the Weather History Date:

Friday, October 21, 2011

  Actual Average Record
Temperature  
Mean Temperature 76 °F -  
Max Temperature 79 °F 83 °F 91 °F (2006)
Min Temperature 74 °F 69 °F 60 °F (1996)
Cooling Degree Days 12    
Growing Degree Days 26 (Base 50)    
Moisture  
Dew Point 63 °F    
Average Humidity 60    
Maximum Humidity 74    
Minimum Humidity 42    
Precipitation  
Precipitation 0.00 in 0.12 in - ()
Sea Level Pressure  
Sea Level Pressure 30.02 in    
Wind  
Wind Speed 8 mph ()    
Max Wind Speed 12 mph    
Max Gust Speed -    
Visibility 6.7 miles    
Events      
Averages and records for this station are not official NWS values.
T = Trace of Precipitation, MM = Missing Value Source: Averaged Metar Reports

Daily Weather History Graph

Daily Weather History Graph

Search for Another Location

Airport or City:

Trip Planner

Search our weather history database for the weather conditions in past years. The results will help you decide how hot, cold, wet, or windy it might be!

Date:

Astronomy

Oct. 21, 2011 Rise Set
Actual Time 7:10 AM EDT 6:37 PM EDT
Civil Twilight 6:47 AM EDT 7:00 PM EDT
Nautical Twilight 6:21 AM EDT 7:27 PM EDT
Astronomical Twilight 5:54 AM EDT 7:54 PM EDT
Moon 1:35 AM EDT (10/21) 2:48 PM EDT (10/21)
Length of Visible Light 12h 13m
Length of Day
11h 26m
Waning Crescent, 34% of the Moon is Illuminated
Oct 21
Waning Crescent
Oct 26
New
Nov 2
First Quarter
Nov 10
Full
Nov 18
Last Quarter

Hourly Weather History & Observations

Time (EDT) Temp. Heat Index Dew Point Humidity Pressure Visibility Wind Dir Wind Speed Gust Speed Precip Events Conditions
12:00 AM 80.6 °F 81.1 °F 59.0 °F 48% 30.04 in 6.2 mi NNE 5.8 mph - N/A   Mostly Cloudy
1:00 AM 80.6 °F 81.8 °F 62.6 °F 54% 30.02 in 6.2 mi NNE 8.1 mph - N/A   Mostly Cloudy
2:00 AM 76 °F - 67 °F 68% 30.02 in 8 mi NNE 8.1 mph - -   Mostly Cloudy
2:00 AM 77.0 °F - 68.0 °F 74% 30.02 in 6.2 mi NNE 8.1 mph - N/A   Mostly Cloudy
3:00 AM 80.6 °F 81.8 °F 62.6 °F 54% 30.02 in 6.2 mi NNE 8.1 mph - N/A   Mostly Cloudy
5:00 AM 76 °F - 66 °F 63% 30.01 in 8 mi NNE 10.4 mph - -   Mostly Cloudy
5:00 AM 75.2 °F - 66.2 °F 73% 30.01 in 6.2 mi NNE 11.5 mph - N/A   Mostly Cloudy
6:00 AM 78.8 °F - 60.8 °F 54% 30.02 in 6.2 mi North 10.4 mph - N/A   Mostly Cloudy
7:00 AM 78.8 °F - 60.8 °F 54% 30.04 in 6.2 mi North 10.4 mph - N/A   Mostly Cloudy
8:00 AM 75 °F - 64 °F 61% 30.05 in 8 mi NNE 6.9 mph - -   Overcast
8:00 AM 75.2 °F - 64.4 °F 69% 30.05 in 6.2 mi NNE 6.9 mph - N/A   Overcast
9:00 AM 78.8 °F - 60.8 °F 54% 30.06 in 6.2 mi NNE 11.5 mph - N/A   Mostly Cloudy
10:00 AM 78.8 °F - 59.0 °F 51% 30.07 in 6.2 mi North - - N/A   Overcast
11:00 AM 77 °F - 64 °F 54% 30.07 in 8 mi North 9.2 mph - -   Overcast
11:00 AM 77.0 °F - 64.4 °F 65% 30.07 in 6.2 mi North 9.2 mph - N/A   Overcast
12:00 PM 82.4 °F 82.0 °F 57.2 °F 42% 30.05 in 6.2 mi NNE 10.4 mph - N/A   Overcast
1:00 PM 80.6 °F 80.8 °F 57.2 °F 45% 30.04 in - North - - N/A   Overcast
2:00 PM 76 °F - 64 °F 59% 30.02 in 8 mi NNE 11.5 mph - -   Overcast
2:00 PM 77.0 °F - 64.4 °F 65% 30.02 in 6.2 mi NNE 11.5 mph - N/A   Overcast
3:00 PM 80.6 °F 80.8 °F 57.2 °F 45% 29.99 in 6.2 mi NNE 10.4 mph - N/A   Overcast
4:00 PM 77.0 °F - 64.4 °F 65% 29.97 in 6.2 mi North 9.2 mph - N/A   Overcast
5:00 PM 76 °F - 64 °F 57% 29.98 in 8 mi NNE 8.1 mph - -   Overcast
5:00 PM 75.2 °F - 64.4 °F 69% 29.98 in 6.2 mi NNE 8.1 mph - N/A   Overcast
6:00 PM 77.0 °F - 66.2 °F 69% 29.97 in 6.2 mi North 8.1 mph - N/A   Overcast
7:00 PM 77.0 °F - 68.0 °F 74% 29.97 in 6.2 mi NNE 10.4 mph - N/A   Mostly Cloudy
8:00 PM 76 °F - 64 °F 57% 29.98 in 8 mi NNE 6.9 mph - -   Mostly Cloudy
8:00 PM 75.2 °F - 64.4 °F 69% 29.98 in 6.2 mi NNE 6.9 mph - N/A   Mostly Cloudy
9:00 PM 77.0 °F - 66.2 °F 69% 29.98 in 6.2 mi NNE 10.4 mph - N/A   Mostly Cloudy
10:00 PM 77.0 °F - 66.2 °F 69% 29.98 in 6.2 mi NNE 9.2 mph - N/A   Mostly Cloudy
11:00 PM 76 °F - 64 °F 59% 30.00 in 8 mi NNE 5.8 mph - -   Mostly Cloudy
11:00 PM 77.0 °F - 64.4 °F 65% 30.00 in 6.2 mi NNE 5.8 mph - N/A   Mostly Cloudy